Regional Weather Roundup
Issued by NWS Sioux Falls, SD

Home | Current Version | Previous Version | Graphics & Text | Print | Product List | Glossary On
Versions: 1 2 3 4 5 6 7 8 9 10 11 12 13 14 15 16 17 18 19 20 21 22 23 24 25 26 27 28 29 30 31 32 33 34 35 36 37 38 39 40 41 42 43 44 45 46 47 48 49 50
000
ASUS43 KFSD 101310
RWRFSD

WEATHER ROUNDUP FOR SE SOUTH DAKOTA/SW MINNESOTA/NW IOWA
NATIONAL WEATHER SERVICE SIOUX FALLS SD
700 AM CST SAT DEC 10 2016

NOTE: "FAIR" INDICATES FEW OR NO CLOUDS BELOW 12,000 FEET WITH NO
SIGNIFICANT WEATHER AND OR OBSTRUCTIONS TO VISIBILITY.


SDZ038>040-050-052>070-101400-
SOUTHEAST SOUTH DAKOTA

CITY           SKY/WX    TMP DP  RH WIND       PRES   REMARKS
BROOKINGS      FLURRIES   4   0  83 E9        30.37F WCI -10
CHAMBERLAIN    LGT SNOW   6   2  84 E8G16     30.29F WCI  -7
HURON          LGT SNOW   3   0  87 NE5       30.39F FOG     WCI  -6
MADISON        FLURRIES   5   5 100 E9        30.36F WCI  -9
MITCHELL       LGT SNOW   8   5  87 NE9       30.38F FOG     WCI  -5
SIOUX FALLS    LGT SNOW  10   7  87 E8        30.39F FOG     WCI  -2
WINNER         LGT SNOW   7   2  80 E16       30.22F VSB 1   WCI -11
YANKTON        CLOUDY    12   9  85 E3        30.37F
$$

MNZ071-072-080-081-089-090-097-098-101400-
SOUTHWEST MINNESOTA

CITY           SKY/WX    TMP DP  RH WIND       PRES   REMARKS
FAIRMONT       FLURRIES   7   2  80 NE6       30.47F WCI  -3
JACKSON        FLURRIES   7   1  78 E3        30.44S
LUVERNE        LGT SNOW   9   3  78 E8        30.42F WCI  -4
MARSHALL       CLOUDY     1  -3  83 N3        30.47F
MONTEVIDEO     CLOUDY     0  -6  78 NE3       30.50F
PIPESTONE      LGT SNOW   7   1  78 E8        30.36F WCI  -6
REDWOOD FALLS  PTCLDY     2  -4  76 N3        30.49F
TRACY          CLOUDY     4   1  88 NE5       30.45F WCI  -5
WINDOM         CLOUDY     5   1  85 MISG      30.44S
WORTHINGTON    FLURRIES   6   2  83 NE8       30.41F WCI  -7
$$

IAZ001>003-012>014-020>022-031-032-NEZ013-014-SDZ071-101400-
NORTHWEST IOWA

CITY           SKY/WX    TMP DP  RH WIND       PRES   REMARKS
CHEROKEE       CLOUDY    17  14  91 E7        30.42F WCI   7
DENISON        MIX PCPN  21  16  79 CALM      30.39F
ESTHERVILLE    CLOUDY     7   4  87 NE7       30.45S WCI  -5
LE MARS        CLOUDY    18  14  86 SE7       30.42F WCI   8
ORANGE CITY    CLOUDY    14  12  92 E7        30.39F WCI   4
SHELDON        LGT SNOW  10   9  92 E9        30.40S WCI  -2
SIOUX CITY     CLOUDY    21  14  74 E7        30.42F WCI  12
SPENCER        LGT SNOW  10   6  84 E9        30.44F FOG     WCI  -3
STORM LAKE     CLOUDY    14  12  92 E10       30.41S WCI   1
$$

ABBREVIATIONS USED IN REMARKS
   TC - TEMPERATURE IN CELSIUS
  WCI - WIND CHILL INDEX
   HX - HEAT INDEX
  VSB - VISIBILITY




USA.gov is the U.S. government's official web portal to all federal, state and local government web resources and services.